Wind_Speed
13 12 10 8 5 2 7 11 10 7 10 10 8 9 9 7 2 1 2 2 1 2 3 4 6 7 8 9 10 10 8 9 11 13 16 18 17 15 14 14 17 18 18 18 16 14 14 14 15
10 9 6 4 4 4 7 9 9 6 6 7 6 6 8 8 4 2 3 3 3 4 5 6 6 7 7 8 9 8 6 6 8 11 13 16 16 15 13 13 15 17 18 18 17 15 14 15 15
9 8 5 3 3 5 7 5 5 3 3 3 2 4 5 5 3 2 3 3 5 7 8 9 9 9 9 8 9 8 6 6 7 9 11 13 14 14 13 13 15 15 16 17 17 17 15 14 15
9 6 5 5 1 5 5 4 4 2 2 0 2 1 2 3 3 2 2 3 4 6 8 9 10 10 10 10 10 10 10 9 10 11 11 11 12 13 13 13 14 14 14 15 16 16 16 15 14
10 6 5 8 2 6 4 2 3 4 6 5 5 5 4 4 6 6 5 5 6 7 8 9 10 11 12 12 13 13 14 13 13 13 12 12 12 13 13 14 15 15 14 14 15 15 16 16 16
12 8 8 7 3 4 6 6 7 8 7 6 7 8 7 5 7 8 8 7 7 8 10 10 11 11 12 13 14 14 14 13 13 12 12 11 12 12 13 14 15 15 16 15 15 16 16 16 15
14 10 11 9 4 2 3 7 8 9 10 9 7 8 8 6 7 8 9 8 7 9 11 12 12 11 11 11 10 11 11 12 12 11 11 11 11 11 11 12 14 15 15 15 16 16 17 17 17
18 15 15 12 7 4 4 8 9 9 9 9 7 6 7 6 5 6 9 10 9 10 12 13 13 11 10 9 9 9 10 10 10 10 10 11 11 11 11 12 13 14 14 14 14 15 16 17 18
20 19 19 18 13 8 6 8 10 10 8 6 6 6 7 7 6 6 8 10 11 11 12 13 13 12 11 11 12 13 13 13 13 14 14 14 14 13 13 13 13 13 13 13 14 15 15 16 17
20 22 22 20 16 10 7 9 11 13 13 12 10 9 9 10 9 7 8 11 12 12 12 14 14 15 15 16 17 18 19 19 20 20 21 20 19 19 17 17 16 15 15 15 16 17 17 18 18
19 21 22 21 17 12 9 10 14 18 19 20 19 16 15 15 15 14 12 14 16 17 17 18 20 21 21 22 23 24 25 25 24 25 26 26 25 25 24 23 22 20 19 18 18 18 19 19 19
22 22 23 23 20 17 13 13 17 21 23 25 26 24 22 20 21 21 20 20 21 22 23 24 26 27 27 27 27 28 29 30 29 29 30 31 30 29 29 29 28 27 26 24 22 22 21 21 21
25 25 26 24 23 21 19 18 19 25 29 31 31 30 27 25 24 24 25 26 27 27 28 28 29 32 33 32 32 32 33 34 35 35 35 35 35 34 33 32 31 30 30 29 27 26 25 25 24
29 29 27 25 25 25 25 25 26 29 34 36 36 35 33 31 28 28 29 30 31 32 33 32 32 34 36 37 37 37 37 38 39 40 40 40 38 37 36 35 33 32 32 31 30 30 29 29 28
33 31 29 28 28 29 31 31 32 32 35 37 38 38 38 36 35 34 34 34 34 36 37 37 37 38 39 40 41 41 41 40 40 40 39 39 39 38 37 37 36 34 34 33 32 33 33 33 32
34 33 31 31 31 31 33 34 34 33 34 35 37 38 38 38 38 38 37 36 36 36 37 38 39 39 40 40 41 41 41 40 40 39 38 38 38 37 37 37 36 36 36 36 36 36 37 38 37
32 31 30 30 30 31 32 33 32 32 32 32 34 36 36 36 36 36 36 35 34 33 34 35 37 38 38 38 38 39 39 39 39 38 38 39 39 38 38 38 38 39 40 39 39 39 40 40 40
25 24 21 21 21 22 24 25 26 28 29 31 33 34 34 33 32 31 32 34 34 34 33 34 35 36 37 37 37 38 39 39 39 39 39 39 39 40 40 41 42 43 43 42 41 41 41 41 40
16 15 15 16 16 16 18 22 26 28 30 33 35 35 33 30 28 27 29 31 32 33 34 34 35 36 38 38 39 39 40 40 40 40 40 40 41 41 41 41 42 42 43 43 43 42 41 40 40
13 17 21 23 22 23 25 28 30 31 32 33 36 36 33 28 26 27 29 31 31 32 33 35 35 35 36 37 38 38 38 38 38 38 38 39 39 39 39 39 40 40 41 41 41 42 41 41 41
15 19 23 27 26 27 28 30 32 33 34 35 36 35 30 26 27 29 31 31 32 33 35 36 36 36 36 37 38 38 38 36 35 36 36 36 36 36 36 37 38 39 40 41 41 42 42 42 42
20 22 22 22 27 32 34 36 34 35 35 34 32 30 27 26 27 29 30 32 32 34 36 36 36 36 37 38 38 39 40 39 39 38 38 38 37 37 38 38 39 40 41 41 42 42 42 42 42
20 20 19 18 19 23 28 33 28 25 25 25 25 23 22 22 24 28 30 31 32 33 34 36 38 39 40 41 41 41 41 42 42 41 41 40 40 40 41 41 42 42 42 42 43 43 43 43 43
11 11 11 12 13 14 17 19 17 16 16 16 18 19 20 23 26 28 29 29 30 31 33 34 37 38 40 42 43 43 43 43 43 42 42 41 41 41 41 42 42 42 43 43 44 45 44 44 44
6 6 6 8 10 10 12 15 15 15 15 17 20 22 25 26 27 27 28 28 29 29 31 32 34 36 38 40 41 43 43 44 44 44 43 42 41 40 40 40 41 41 42 43 44 44 45 45 46
8 8 7 5 6 7 12 16 17 17 19 22 25 27 28 28 27 27 29 30 31 31 33 34 36 37 38 39 39 40 41 42 43 44 45 44 43 42 41 41 41 41 42 43 43 44 45 46 46
9 9 9 9 9 9 11 18 21 22 24 26 27 28 28 28 28 30 32 33 34 35 36 38 38 39 39 40 40 39 39 40 41 42 43 44 44 43 42 42 42 42 43 43 43 42 42 42 41
10 10 11 12 12 11 8 11 19 23 25 27 28 29 29 29 30 32 33 33 34 35 37 38 39 40 40 41 41 40 39 38 39 40 40 40 41 41 41 42 42 42 41 40 39 37 35 34 32
12 10 11 12 14 15 13 9 16 21 24 27 28 28 29 30 31 33 35 35 35 36 37 39 39 40 41 41 41 40 38 37 37 38 38 38 37 38 39 39 39 38 36 34 32 29 27 26 24
13 14 15 16 16 18 19 15 18 22 25 27 29 31 32 33 34 36 39 40 39 38 38 39 40 40 41 42 41 40 38 36 34 34 34 33 34 34 34 33 33 32 30 28 25 24 23 22 21
Wind_Direction
143 140 124 112 129 142 124 103 92 82 74 71 72 70 70 76 89 69 69 89 107 73 42 35 35 32 32 30 29 28 29 31 28 23 18 15 13 15 17 16 13 10 9 7 7 10 14 16 16
156 158 143 108 91 112 113 108 99 90 84 79 76 78 76 66 52 27 58 36 4 359 352 356 359 5 13 17 17 17 21 22 18 14 13 11 8 8 7 5 5 5 5 6 6 5 8 11 14
171 174 179 185 100 92 97 93 82 80 100 86 75 79 71 60 42 27 60 32 8 358 346 343 343 344 350 357 359 356 353 350 352 356 360 1 359 358 355 354 355 357 357 358 1 3 2 4 6
180 183 220 234 177 84 85 73 60 347 290 274 305 357 27 12 340 318 351 358 354 354 347 346 343 340 339 340 339 337 334 331 333 338 343 346 347 347 346 345 346 347 347 347 349 354 356 357 357
189 181 240 251 170 68 59 32 11 322 297 306 305 306 313 324 312 301 300 318 331 328 324 325 326 327 327 327 327 327 327 328 331 332 335 336 338 339 340 339 338 337 336 334 333 336 343 348 349
187 189 235 238 184 77 20 347 324 293 286 298 299 293 291 293 292 291 289 299 318 315 311 313 313 315 320 325 328 330 332 333 333 332 332 335 337 338 338 338 337 334 328 323 320 320 323 327 332
183 193 222 219 192 117 340 308 302 290 291 294 304 301 301 296 290 286 285 290 295 297 298 301 304 307 312 319 326 331 333 335 337 339 339 338 338 339 337 335 333 332 330 325 319 315 313 313 315
185 196 219 218 206 216 258 288 292 291 282 286 301 318 327 342 329 298 289 292 295 297 297 297 298 298 298 301 307 314 317 319 322 325 327 327 328 327 324 320 319 319 322 324 323 319 315 311 309
194 205 225 234 235 233 225 249 267 273 279 288 308 321 328 336 348 334 313 304 300 297 297 297 295 293 292 292 295 298 300 302 301 301 304 307 309 311 308 305 306 307 308 311 312 313 312 312 309
200 211 229 241 250 254 218 233 264 283 293 296 297 305 315 318 319 316 313 308 302 296 293 293 292 292 293 295 296 297 298 298 295 294 296 298 299 300 299 298 297 298 299 301 303 305 306 306 306
206 213 232 244 254 263 245 243 272 285 292 295 294 293 298 305 305 301 297 294 291 289 288 288 289 291 292 295 296 297 297 297 294 293 294 296 297 297 297 296 294 292 292 292 292 294 298 300 302
219 219 232 242 252 261 264 261 271 281 286 287 289 291 296 299 299 298 296 292 289 287 287 288 290 291 290 291 291 291 292 293 292 292 292 292 293 293 292 292 294 294 292 289 286 284 286 290 293
232 230 236 244 254 261 266 267 270 278 280 282 285 290 294 295 294 292 292 291 290 288 286 286 286 286 287 286 286 286 287 287 288 288 288 288 289 289 289 288 287 287 288 287 286 283 282 284 285
242 243 245 250 257 262 265 266 268 273 278 282 287 290 292 293 291 287 285 285 285 286 285 285 284 283 283 283 283 282 282 283 284 285 286 286 285 285 285 285 284 282 282 282 282 281 281 281 282
246 250 253 254 256 260 263 266 267 269 275 282 287 290 293 294 292 290 287 286 286 285 286 286 286 285 284 283 283 282 281 281 281 282 282 282 280 279 278 277 276 276 277 279 281 280 280 280 280
246 250 254 256 257 257 260 263 266 268 273 278 285 290 294 296 296 296 295 292 289 287 286 285 284 284 284 283 283 283 283 283 282 281 280 279 280 279 278 278 277 276 277 279 280 281 281 280 280
245 248 250 252 254 254 256 260 264 268 272 279 286 292 294 295 296 297 296 296 293 289 286 284 283 283 283 283 282 281 281 281 281 280 280 280 280 278 276 276 277 278 280 281 281 281 281 280 281
244 246 246 245 248 253 259 265 268 271 277 282 285 287 288 290 291 293 296 297 297 295 289 285 282 282 281 281 281 280 280 280 280 280 281 280 279 278 276 274 273 274 277 279 280 281 281 281 282
233 233 228 227 227 231 241 249 256 266 273 279 282 284 286 289 291 293 297 298 298 298 295 290 285 282 282 282 281 281 280 280 280 280 280 279 278 277 276 274 273 273 274 275 276 278 279 280 281
217 223 223 225 228 228 232 241 251 260 268 276 281 284 287 289 292 296 299 300 299 299 299 296 293 290 288 287 286 284 282 281 280 279 279 279 279 278 277 277 276 276 276 277 277 277 279 280 280
232 235 232 230 236 245 250 256 263 270 274 276 278 280 283 286 289 292 296 297 296 297 297 297 295 293 291 290 290 289 288 286 284 282 282 282 282 282 280 279 279 279 279 279 279 279 279 279 279
253 255 256 249 242 242 252 259 262 268 272 275 276 275 276 281 288 294 298 295 292 292 294 294 294 294 293 292 289 288 286 285 284 283 282 283 284 284 284 283 283 283 282 282 280 279 279 278 278
261 268 269 266 252 244 244 254 263 265 269 273 276 278 285 292 296 297 297 295 293 293 295 296 297 297 296 293 290 287 285 284 283 282 281 281 282 282 283 283 283 282 282 282 281 280 280 279 278
279 280 273 266 262 250 250 257 263 274 283 288 291 292 298 299 297 297 298 299 302 304 304 303 301 300 297 295 292 289 286 284 282 282 281 281 280 281 281 282 282 282 281 281 280 280 280 279 278
314 305 287 263 263 263 267 273 281 291 294 295 295 295 298 300 303 305 308 310 314 315 314 312 311 309 306 301 297 293 289 286 284 283 282 282 282 282 282 283 284 283 282 281 280 279 279 278 278
319 315 314 298 276 272 271 275 284 291 292 293 297 302 306 311 315 318 319 321 324 325 325 324 323 321 317 312 308 301 295 291 288 286 285 285 286 286 286 286 287 286 285 283 281 278 276 276 276
304 305 309 311 307 296 280 282 286 291 294 297 301 306 311 317 321 323 322 323 325 326 327 327 327 326 324 322 318 312 303 296 293 291 290 289 289 288 288 287 287 287 286 284 280 277 275 274 273
282 284 291 298 306 301 290 291 292 291 294 299 304 310 315 319 321 320 318 317 319 320 321 322 325 326 327 326 324 318 310 301 296 294 294 293 292 290 289 287 287 286 284 282 280 276 273 269 268
297 301 298 299 304 307 304 299 297 294 294 297 301 307 311 313 314 313 311 312 313 314 315 316 319 321 323 324 324 321 315 306 299 296 296 295 293 291 289 288 287 285 283 281 277 271 265 260 257
304 310 306 303 303 304 304 303 294 292 293 298 303 307 310 311 310 308 307 307 309 310 310 311 312 314 316 319 322 321 317 310 303 298 296 296 295 294 293 292 290 286 282 277 269 260 249 241 236
Height
5936 5936 5935 5935 5936 5936 5936 5935 5934 5935 5937 5937 5936 5936 5936 5937 5937 5939 5937 5935 5935 5935 5935 5935 5935 5935 5935 5935 5934 5934 5933 5933 5932 5931 5930 5929 5927 5926 5925 5923 5922 5920 5917 5916 5914 5913 5911 5910 5908
5936 5936 5936 5936 5936 5936 5936 5935 5935 5936 5937 5939 5939 5938 5938 5938 5938 5938 5937 5937 5936 5937 5937 5937 5937 5936 5936 5936 5935 5934 5934 5933 5932 5931 5930 5929 5928 5926 5925 5924 5923 5921 5919 5917 5915 5913 5912 5910 5909
5936 5936 5937 5937 5937 5936 5936 5936 5935 5936 5937 5939 5939 5939 5939 5939 5938 5938 5938 5938 5937 5938 5937 5938 5937 5937 5936 5936 5935 5935 5934 5933 5932 5931 5930 5929 5928 5927 5925 5924 5923 5921 5920 5918 5916 5914 5912 5911 5909
5937 5937 5938 5938 5937 5936 5936 5936 5936 5936 5937 5938 5939 5940 5940 5940 5938 5937 5938 5937 5937 5937 5937 5937 5937 5936 5936 5935 5935 5934 5933 5932 5931 5930 5929 5928 5928 5926 5925 5923 5922 5921 5919 5918 5916 5914 5912 5911 5909
5938 5938 5938 5935 5935 5934 5934 5934 5936 5936 5936 5938 5938 5939 5940 5940 5937 5936 5936 5937 5937 5936 5936 5936 5936 5935 5935 5934 5933 5933 5932 5931 5930 5930 5929 5928 5927 5926 5924 5923 5921 5920 5919 5917 5915 5914 5912 5911 5909
5938 5938 5936 5933 5933 5934 5933 5933 5936 5936 5937 5937 5937 5938 5939 5940 5937 5936 5935 5936 5936 5935 5935 5934 5934 5933 5933 5932 5932 5931 5930 5929 5928 5928 5927 5926 5925 5924 5923 5921 5919 5918 5917 5915 5914 5912 5911 5910 5908
5937 5936 5933 5932 5933 5934 5934 5934 5935 5935 5935 5936 5937 5936 5937 5938 5937 5935 5933 5934 5934 5934 5933 5933 5932 5932 5931 5931 5930 5929 5928 5927 5926 5926 5925 5924 5923 5921 5920 5919 5917 5915 5914 5913 5911 5910 5909 5907 5906
5934 5934 5931 5931 5932 5934 5935 5934 5934 5933 5934 5935 5936 5936 5935 5937 5937 5935 5933 5933 5933 5933 5932 5932 5931 5930 5929 5928 5927 5926 5925 5924 5924 5923 5922 5921 5920 5919 5917 5916 5914 5912 5911 5909 5908 5907 5905 5904 5903
5932 5932 5929 5929 5931 5933 5934 5933 5932 5932 5933 5935 5936 5935 5935 5936 5937 5936 5934 5933 5932 5932 5931 5930 5929 5928 5928 5927 5925 5924 5923 5922 5921 5920 5919 5918 5917 5915 5914 5912 5911 5909 5907 5906 5904 5903 5901 5900 5900
5930 5929 5927 5928 5930 5931 5932 5931 5930 5930 5932 5933 5934 5934 5934 5934 5935 5936 5935 5933 5931 5930 5929 5928 5927 5926 5925 5924 5923 5922 5921 5920 5918 5917 5916 5914 5913 5912 5910 5908 5907 5906 5904 5902 5900 5899 5897 5896 5895
5927 5928 5927 5927 5928 5930 5930 5930 5928 5927 5928 5929 5930 5931 5932 5931 5931 5932 5933 5932 5930 5928 5926 5925 5924 5923 5922 5921 5920 5918 5917 5915 5914 5913 5911 5910 5908 5907 5905 5903 5902 5901 5899 5897 5896 5894 5893 5892 5891
5924 5924 5924 5925 5926 5928 5928 5928 5927 5924 5924 5924 5925 5926 5928 5928 5927 5926 5926 5927 5926 5925 5923 5921 5919 5918 5917 5916 5914 5913 5911 5909 5908 5906 5905 5904 5902 5901 5899 5897 5895 5894 5893 5891 5890 5889 5888 5887 5886
5921 5921 5922 5923 5925 5925 5926 5926 5924 5921 5918 5919 5920 5922 5923 5923 5923 5922 5920 5920 5919 5919 5918 5918 5915 5912 5910 5909 5908 5906 5904 5902 5901 5899 5897 5896 5894 5893 5891 5890 5889 5887 5886 5885 5883 5882 5880 5880 5879
5916 5917 5919 5922 5922 5922 5922 5921 5920 5917 5913 5913 5915 5916 5917 5917 5917 5916 5914 5913 5911 5910 5910 5910 5909 5906 5903 5902 5901 5900 5898 5895 5893 5890 5888 5887 5885 5884 5882 5880 5880 5879 5877 5877 5876 5874 5873 5872 5872
5911 5914 5916 5917 5916 5916 5915 5916 5915 5913 5911 5909 5909 5909 5909 5909 5908 5908 5906 5905 5903 5901 5900 5899 5898 5896 5894 5892 5890 5889 5887 5886 5884 5882 5880 5878 5875 5873 5872 5870 5870 5869 5867 5867 5867 5866 5865 5864 5864
5906 5908 5909 5910 5910 5909 5910 5909 5908 5908 5907 5905 5903 5902 5901 5901 5899 5898 5897 5896 5895 5893 5891 5889 5887 5885 5883 5881 5879 5877 5875 5874 5873 5871 5870 5868 5866 5864 5863 5861 5860 5859 5858 5857 5857 5856 5856 5855 5855
5899 5900 5901 5903 5903 5902 5902 5902 5902 5901 5902 5901 5899 5897 5896 5894 5893 5891 5889 5887 5886 5884 5882 5879 5877 5875 5873 5871 5869 5867 5865 5864 5862 5861 5859 5858 5857 5855 5854 5853 5851 5850 5849 5848 5847 5846 5845 5845 5844
5892 5894 5895 5896 5896 5897 5897 5896 5896 5896 5896 5896 5895 5894 5893 5891 5889 5887 5884 5881 5878 5876 5874 5872 5869 5866 5864 5862 5860 5858 5856 5854 5853 5852 5850 5848 5847 5845 5844 5843 5842 5840 5839 5838 5837 5836 5835 5835 5834
5888 5889 5889 5890 5890 5890 5890 5891 5891 5890 5890 5889 5888 5886 5886 5885 5884 5882 5880 5876 5873 5869 5866 5864 5861 5859 5856 5854 5851 5849 5847 5845 5843 5841 5840 5838 5836 5835 5833 5832 5832 5831 5829 5828 5827 5827 5825 5825 5824
5884 5884 5884 5884 5885 5885 5885 5886 5885 5885 5884 5882 5880 5878 5879 5879 5877 5876 5873 5870 5867 5863 5860 5856 5853 5850 5847 5844 5841 5839 5837 5836 5833 5831 5829 5827 5826 5824 5823 5822 5821 5820 5819 5819 5818 5816 5815 5815 5814
5880 5879 5880 5880 5881 5881 5881 5881 5880 5879 5877 5876 5874 5872 5872 5872 5870 5868 5866 5863 5860 5857 5853 5849 5846 5842 5839 5835 5832 5829 5827 5825 5824 5822 5820 5818 5816 5815 5813 5812 5810 5809 5809 5808 5808 5806 5805 5805 5804
5875 5875 5875 5877 5878 5877 5877 5874 5875 5873 5871 5869 5868 5866 5865 5864 5863 5861 5859 5856 5854 5850 5846 5842 5838 5834 5831 5828 5825 5822 5819 5816 5814 5812 5811 5809 5807 5805 5803 5802 5801 5799 5798 5797 5797 5796 5795 5794 5794
5870 5869 5869 5869 5869 5870 5869 5867 5869 5867 5865 5863 5861 5860 5858 5858 5857 5855 5853 5850 5847 5843 5838 5834 5830 5826 5822 5819 5816 5813 5810 5807 5805 5803 5801 5800 5798 5795 5794 5792 5790 5789 5787 5786 5785 5785 5784 5783 5783
5866 5866 5865 5864 5864 5864 5863 5863 5863 5860 5859 5857 5855 5854 5853 5852 5851 5849 5846 5842 5838 5834 5830 5825 5821 5817 5813 5809 5805 5802 5799 5797 5794 5792 5791 5789 5787 5786 5783 5781 5779 5778 5777 5775 5774 5773 5772 5771 5770
5864 5864 5863 5862 5861 5861 5859 5857 5857 5855 5853 5852 5850 5848 5847 5845 5843 5840 5837 5833 5829 5826 5821 5817 5813 5808 5803 5799 5795 5791 5787 5785 5782 5781 5779 5777 5776 5774 5772 5770 5768 5766 5765 5764 5763 5762 5760 5759 5758
5862 5861 5861 5861 5859 5858 5855 5852 5852 5849 5847 5845 5843 5841 5839 5836 5834 5831 5827 5824 5821 5817 5813 5809 5804 5800 5795 5790 5785 5780 5776 5772 5770 5768 5766 5765 5763 5762 5760 5757 5756 5754 5753 5752 5750 5749 5748 5747 5746
5860 5859 5858 5857 5856 5855 5852 5849 5846 5844 5841 5839 5836 5834 5832 5829 5826 5824 5821 5817 5814 5811 5806 5802 5797 5792 5787 5782 5776 5771 5765 5761 5758 5756 5754 5752 5751 5749 5747 5745 5744 5742 5741 5739 5738 5737 5736 5735 5735
5858 5857 5856 5854 5853 5851 5850 5847 5843 5839 5836 5834 5832 5829 5827 5825 5822 5819 5816 5813 5810 5806 5802 5797 5791 5786 5780 5774 5769 5762 5756 5751 5748 5745 5743 5741 5739 5736 5735 5733 5731 5730 5728 5727 5726 5725 5725 5725 5725
5855 5854 5852 5850 5849 5847 5845 5847 5840 5836 5833 5831 5828 5825 5823 5820 5817 5814 5810 5807 5804 5800 5795 5790 5785 5779 5774 5768 5762 5755 5749 5743 5739 5736 5733 5731 5728 5725 5723 5721 5719 5718 5716 5716 5715 5715 5716 5717 5717
5852 5850 5848 5847 5845 5842 5840 5842 5836 5832 5828 5825 5823 5820 5816 5813 5810 5806 5802 5798 5795 5792 5787 5782 5778 5773 5767 5761 5755 5749 5743 5737 5732 5728 5725 5722 5719 5716 5713 5711 5709 5707 5706 5706 5706 5707 5708 5710 5711